FW2060 Weather Reports


Display with metric or nautical units.
time (UTC)temp
F
wind
direction
speed
MPH
gust
MPH
rain 1hr
in
rain 24hr
in
rain mn
in
humidity
%
barometer
mb
20200406080050 63 205 0.0 0.0 0.00 0.01 0.00 91 1018.5
20200406074528 63 205 0.0 0.0 0.00 0.01 0.00 90 1018.5
20200406073020 63 205 0.0 0.0 0.00 0.01 0.00 91 1018.3
20200406071543 64 205 0.0 0.0 0.00 0.01 0.00 90 1018.6
20200406070013 64 205 0.0 0.0 0.00 0.01 0.00 91 1018.0
20200406064510 64 205 0.0 0.0 0.00 0.01 0.00 89 1018.7
20200406063014 64 205 0.0 0.0 0.00 0.01 0.00 88 1018.6
20200406061506 64 205 0.0 0.0 0.00 0.01 0.00 88 1018.9
20200406060034 65 205 0.0 0.0 0.00 0.01 0.00 87 1019.0
20200406054506 65 205 0.0 0.0 0.00 0.01 0.00 87 1019.2
20200406053221 65 205 0.0 1.0 0.00 0.01 0.00 87 1019.2
20200406051629 65 205 0.0 0.0 0.00 0.01 0.00 87 1018.9
20200406050104 65 205 0.0 0.0 0.00 0.01 0.00 87 1019.1
20200406044623 65 205 0.0 0.0 0.00 0.04 0.01 88 1018.7
20200406043146 65 205 0.0 0.0 0.00 0.04 0.01 86 1018.7
20200406041632 66 205 0.0 0.0 0.00 0.04 0.01 85 1019.0
20200406040216 66 205 0.0 0.0 0.00 0.04 0.01 85 1019.0
20200406034702 66 205 0.0 0.0 0.00 0.04 0.01 85 1019.3
20200406033118 66 200 0.0 0.0 0.00 0.04 0.01 86 1019.2
20200406031706 66 200 0.0 0.0 0.00 0.04 0.01 85 1018.7
20200406030214 66 200 0.0 0.0 0.00 0.04 0.01 85 1018.9
20200406024638 66 200 0.0 0.0 0.00 0.04 0.01 85 1018.6
20200406023142 66 173 0.0 0.0 0.00 0.04 0.01 82 1018.6
20200406021645 66 173 0.0 0.0 0.00 0.04 0.01 81 1018.5
20200406020146 67 173 0.0 0.0 0.00 0.04 0.01 79 1018.2
20200406014616 67 173 0.0 0.0 0.00 0.06 0.01 75 1017.9
20200406013111 68 173 0.0 0.0 0.00 0.06 0.01 74 1017.6
20200406011647 70 173 0.0 0.0 0.00 0.06 0.01 71 1017.5
20200406010208 71 173 0.0 0.0 0.00 0.06 0.01 68 1017.4
20200406004630 73 173 0.0 0.0 0.00 0.06 0.01 66 1017.4
20200406003120 74 173 0.0 0.0 0.00 0.06 0.01 65 1017.3
20200406001628 76 173 0.0 0.0 0.00 0.06 0.01 66 1017.1
20200406000112 78 173 0.0 0.0 0.00 0.06 0.01 62 1017.1
20200405234616 80 171 0.0 0.0 0.00 0.06 0.01 56 1016.8
20200405233148 81 295 0.0 0.0 0.00 0.06 0.01 56 1017.0
20200405231724 82 150 0.0 0.0 0.00 0.06 0.01 57 1017.0
20200405230056 82 150 0.0 0.0 0.00 0.06 0.01 55 1016.8
20200405224617 83 201 0.0 0.0 0.00 0.06 0.01 53 1016.9
20200405223137 83 231 0.0 1.0 0.00 0.06 0.01 53 1016.9
20200405221552 83 75 0.0 1.0 0.00 0.06 0.01 54 1016.7
20200405220201 83 115 0.0 0.0 0.00 0.06 0.01 54 1016.6
20200405214703 83 60 0.0 1.0 0.00 0.06 0.01 56 1016.8
20200405213129 82 141 0.0 2.0 0.00 0.06 0.01 53 1016.8
20200405211607 83 84 0.0 3.0 0.00 0.06 0.01 51 1017.0
20200405210055 83 6 0.0 1.0 0.00 0.06 0.01 56 1017.1
20200405204602 83 244 0.0 2.0 0.00 0.06 0.01 54 1017.2
20200405203053 83 198 0.0 0.0 0.00 0.06 0.01 50 1017.2
20200405201533 82 68 0.0 0.0 0.00 0.06 0.01 51 1017.2
20200405200057 82 51 0.0 0.0 0.00 0.06 0.01 54 1017.4
20200405194539 82 175 0.0 0.0 0.00 0.06 0.01 55 1017.7
20200405193114 81 356 0.0 0.0 0.00 0.06 0.01 53 1017.7
20200405191549 81 327 0.0 0.0 0.00 0.06 0.01 58 1018.0
20200405190026 81 150 0.0 0.0 0.00 0.06 0.01 58 1018.1
20200405184534 80 175 0.0 2.0 0.00 0.06 0.01 58 1018.3
20200405183025 80 356 0.0 4.0 0.00 0.06 0.01 60 1018.5
20200405181547 79 233 0.0 1.0 0.00 0.06 0.01 57 1018.6
20200405180018 79 94 0.0 4.0 0.00 0.06 0.01 66 1018.7
20200405174540 79 316 0.0 2.0 0.00 0.06 0.01 66 1018.9
20200405173015 78 150 0.0 0.0 0.00 0.06 0.01 67 1019.1
20200405171510 78 290 0.0 2.0 0.00 0.06 0.01 62 1019.2
20200405170013 77 72 0.0 3.0 0.00 0.06 0.01 67 1019.4
20200405164527 77 59 0.0 1.0 0.00 0.06 0.01 66 1019.5
20200405163117 76 355 0.0 3.0 0.00 0.06 0.01 69 1019.5
20200405161710 75 15 0.0 1.0 0.00 0.06 0.01 68 1019.7
20200405154623 73 46 0.0 0.0 0.01 0.06 0.01 75 1019.3
20200405153135 72 351 0.0 0.0 0.01 0.06 0.01 77 1019.1
20200405151619 71 193 0.0 0.0 0.01 0.06 0.01 83 1018.9
20200405150059 69 95 0.0 0.0 0.01 0.06 0.01 80 1018.9
20200405144532 67 96 0.0 2.0 0.00 0.05 0.00 86 1018.6
20200405143059 66 219 0.0 0.0 0.00 0.05 0.00 89 1018.7
20200405141554 65 98 0.0 0.0 0.00 0.05 0.00 91 1018.8
20200405140030 64 153 0.0 4.0 0.00 0.05 0.00 92 1018.8
20200405134550 63 89 0.0 3.0 0.00 0.05 0.00 94 1018.6
20200405133027 63 171 0.0 2.0 0.00 0.05 0.00 96 1018.3
20200405131519 62 310 0.0 0.0 0.00 0.05 0.00 97 1018.3
20200405130012 62 310 0.0 0.0 0.00 0.05 0.00 97 1018.1
20200405124516 62 314 0.0 0.0 0.00 0.05 0.00 97 1018.1
20200405123010 61 316 0.0 0.0 0.00 0.05 0.00 97 1017.5
20200405121504 61 316 0.0 0.0 0.00 0.05 0.00 97 1017.1
20200405120008 62 316 0.0 0.0 0.00 0.05 0.00 97 1017.1
20200405114721 62 316 0.0 0.0 0.00 0.05 0.00 97 1017.0
20200405113222 61 316 0.0 0.0 0.00 0.05 0.00 97 1016.6
20200405111623 61 316 0.0 0.0 0.00 0.05 0.00 96 1016.7
20200405110248 61 316 0.0 0.0 0.00 0.05 0.00 96 1016.5
20200405104626 61 316 0.0 0.0 0.00 0.05 0.00 96 1016.8
20200405103215 62 316 0.0 0.0 0.00 0.05 0.00 96 1016.4
20200405101632 62 316 0.0 0.0 0.00 0.05 0.00 96 1016.5
20200405100129 62 316 0.0 0.0 0.00 0.05 0.00 97 1016.4
20200405094646 62 316 0.0 0.0 0.00 0.05 0.00 97 1016.3
20200405093144 62 316 0.0 0.0 0.00 0.05 0.00 97 1016.3
20200405091624 62 316 0.0 0.0 0.00 0.05 0.00 97 1016.3
20200405084721 62 303 0.0 0.0 0.00 0.05 0.00 97 1016.0
20200405083114 61 205 0.0 0.0 0.00 0.05 0.00 96 1015.7
20200405081617 61 205 0.0 0.0 0.00 0.05 0.00 96 1015.5